When you browse on this site, cookies collect data to enhance your experience and personalize the content and advertising you see.
Visit our Privacy Policy to learn more. By continuing to use the site, you agree to this use of cookies and data.
  • In Austria
  • List of Countries
  • For 7 days
  • Water Temperature
  • Weather Map
  • News
  • Weather Widgets
  • user-avatar
    Login

    Hourly Weather Macheta

    Today, 23 September, Monday

    Time Temperature Precipitation Wind Pressure Humidity
    00:00 +12°C° 0 mm 0 mps 583 mmHg 97%
    01:00 +12°C° 0 mm 1 mps 582 mmHg 97%
    02:00 +12°C° 0 mm 1 mps 582 mmHg 96%
    03:00 +12°C° 0 mm 1 mps 582 mmHg 96%
    04:00 +11°C° 0 mm 1 mps 582 mmHg 95%
    05:00 +12°C° 0 mm 1 mps 583 mmHg 92%
    06:00 +13°C° 0 mm 1 mps 583 mmHg 90%
    07:00 +13°C° 0 mm 0 mps 584 mmHg 86%
    08:00 +18°C° 0 mm 1 mps 586 mmHg 76%
    09:00 +20°C° 0 mm 1 mps 587 mmHg 65%
    10:00 +21°C° 0 mm 2 mps 588 mmHg 55%
    11:00 +21°C° 0.2 mm 2 mps 587 mmHg 56%
    12:00 +23°C° 0.2 mm 2 mps 586 mmHg 58%
    13:00 +22°C° 0.2 mm 3 mps 585 mmHg 60%
    14:00 +21°C° 0.4 mm 3 mps 584 mmHg 67%
    15:00 +20°C° 0.4 mm 2 mps 584 mmHg 74%
    16:00 +19°C° 0.4 mm 2 mps 583 mmHg 81%
    17:00 +17°C° 0.4 mm 2 mps 583 mmHg 86%
    18:00 +16°C° 0.4 mm 1 mps 582 mmHg 92%
    19:00 +15°C° 0.4 mm 1 mps 582 mmHg 97%
    20:00 +14°C° 0 mm 1 mps 582 mmHg 97%
    21:00 +13°C° 0 mm 0 mps 583 mmHg 96%
    22:00 +13°C° 0 mm 0 mps 583 mmHg 95%
    23:00 +12°C° 0 mm 0 mps 583 mmHg 95%

    Tomorrow, 24 September, Tuesday

    Time Temperature Precipitation Wind Pressure Humidity
    00:00 +11°C° 0 mm 0 mps 582 mmHg 95%
    01:00 +11°C° 0 mm 0 mps 582 mmHg 94%
    02:00 +11°C° 0 mm 0 mps 582 mmHg 93%
    03:00 +11°C° 0 mm 1 mps 582 mmHg 92%
    04:00 +11°C° 0 mm 1 mps 581 mmHg 90%
    05:00 +11°C° 0 mm 0 mps 582 mmHg 88%
    06:00 +12°C° 0 mm 0 mps 583 mmHg 86%
    07:00 +13°C° 0 mm 0 mps 584 mmHg 84%
    08:00 +16°C° 0 mm 1 mps 585 mmHg 73%
    09:00 +20°C° 0 mm 1 mps 587 mmHg 62%
    10:00 +22°C° 0 mm 1 mps 588 mmHg 52%
    11:00 +21°C° 0.1 mm 2 mps 587 mmHg 54%
    12:00 +21°C° 0.1 mm 2 mps 587 mmHg 56%
    13:00 +23°C° 0.1 mm 2 mps 586 mmHg 58%
    14:00 +21°C° 0.6 mm 2 mps 585 mmHg 65%
    15:00 +20°C° 0.6 mm 2 mps 584 mmHg 73%
    16:00 +20°C° 0.6 mm 1 mps 584 mmHg 81%
    17:00 +19°C° 1 mm 1 mps 584 mmHg 86%
    18:00 +16°C° 1 mm 1 mps 583 mmHg 92%
    19:00 +14°C° 1 mm 0 mps 583 mmHg 98%
    20:00 +14°C° 0.7 mm 0 mps 583 mmHg 97%
    21:00 +14°C° 0.7 mm 0 mps 584 mmHg 97%
    22:00 +14°C° 0.7 mm 0 mps 584 mmHg 97%
    23:00 +13°C° 0.4 mm 0 mps 584 mmHg 97%

    Day after tomorrow, 25 September, Wednesday

    Time Temperature Precipitation Wind Pressure Humidity
    00:00 +13°C° 0.4 mm 0 mps 583 mmHg 96%
    01:00 +13°C° 0.4 mm 0 mps 583 mmHg 95%
    02:00 +13°C° 0 mm 0 mps 583 mmHg 95%
    03:00 +12°C° 0 mm 0 mps 583 mmHg 95%
    04:00 +12°C° 0 mm 0 mps 582 mmHg 94%
    05:00 +13°C° 0 mm 0 mps 583 mmHg 94%
    06:00 +13°C° 0 mm 0 mps 584 mmHg 93%
    07:00 +14°C° 0 mm 0 mps 585 mmHg 92%
    08:00 +14°C° 0.2 mm 0 mps 585 mmHg 91%
    09:00 +16°C° 0.2 mm 1 mps 585 mmHg 89%
    10:00 +18°C° 0.2 mm 1 mps 586 mmHg 88%
    11:00 +18°C° 0.4 mm 1 mps 585 mmHg 86%
    12:00 +19°C° 0.4 mm 1 mps 584 mmHg 84%
    13:00 +19°C° 0.4 mm 1 mps 584 mmHg 83%
    14:00 +20°C° 0.2 mm 1 mps 584 mmHg 79%
    15:00 +19°C° 0.2 mm 2 mps 583 mmHg 75%
    16:00 +19°C° 0.2 mm 2 mps 583 mmHg 71%
    17:00 +19°C° 0.2 mm 1 mps 583 mmHg 80%
    18:00 +16°C° 0.2 mm 1 mps 582 mmHg 89%
    19:00 +13°C° 0.2 mm 0 mps 582 mmHg 98%
    20:00 +13°C° 0 mm 0 mps 582 mmHg 98%
    21:00 +13°C° 0 mm 0 mps 583 mmHg 97%
    22:00 +13°C° 0 mm 0 mps 584 mmHg 97%
    23:00 +13°C° 0 mm 0 mps 583 mmHg 97%

    26 September, Thursday

    Time Temperature Precipitation Wind Pressure Humidity
    00:00 +13°C° 0 mm 0 mps 583 mmHg 96%
    01:00 +12°C° 0 mm 0 mps 583 mmHg 96%
    02:00 +12°C° 0 mm 0 mps 583 mmHg 96%
    03:00 +12°C° 0 mm 0 mps 582 mmHg 96%
    04:00 +12°C° 0 mm 0 mps 582 mmHg 95%
    05:00 +13°C° 0 mm 0 mps 583 mmHg 94%
    06:00 +13°C° 0 mm 0 mps 583 mmHg 93%
    07:00 +14°C° 0 mm 0 mps 584 mmHg 91%
    08:00 +15°C° 0.2 mm 1 mps 584 mmHg 91%
    09:00 +16°C° 0.2 mm 1 mps 584 mmHg 90%
    10:00 +16°C° 0.2 mm 1 mps 584 mmHg 89%
    11:00 +17°C° 0.4 mm 2 mps 584 mmHg 86%
    12:00 +18°C° 0.4 mm 2 mps 584 mmHg 82%
    13:00 +19°C° 0.4 mm 3 mps 584 mmHg 79%
    14:00 +18°C° 0.5 mm 2 mps 583 mmHg 82%
    15:00 +17°C° 0.5 mm 2 mps 583 mmHg 86%
    16:00 +17°C° 0.5 mm 2 mps 582 mmHg 89%
    17:00 +16°C° 0.2 mm 1 mps 582 mmHg 92%
    18:00 +15°C° 0.2 mm 1 mps 582 mmHg 94%
    19:00 +14°C° 0.2 mm 1 mps 582 mmHg 97%
    20:00 +14°C° 0 mm 1 mps 582 mmHg 96%
    21:00 +12°C° 0 mm 0 mps 582 mmHg 96%
    22:00 +12°C° 0 mm 0 mps 582 mmHg 96%
    23:00 +11°C° 0 mm 0 mps 582 mmHg 96%

    27 September, Friday

    Time Temperature Precipitation Wind Pressure Humidity
    00:00 +12°C° 0 mm 1 mps 582 mmHg 96%
    01:00 +12°C° 0 mm 1 mps 582 mmHg 96%
    02:00 +12°C° 0 mm 1 mps 581 mmHg 95%
    03:00 +12°C° 0 mm 1 mps 581 mmHg 95%
    04:00 +12°C° 0 mm 1 mps 581 mmHg 94%
    05:00 +13°C° 0 mm 1 mps 582 mmHg 93%
    06:00 +12°C° 0 mm 0 mps 583 mmHg 91%
    07:00 +13°C° 0 mm 0 mps 584 mmHg 89%
    08:00 +16°C° 0.1 mm 1 mps 585 mmHg 82%
    09:00 +18°C° 0.1 mm 2 mps 586 mmHg 75%
    10:00 +20°C° 0.1 mm 2 mps 587 mmHg 67%
    11:00 +20°C° 0.4 mm 3 mps 586 mmHg 66%
    12:00 +21°C° 0.4 mm 3 mps 586 mmHg 65%
    13:00 +21°C° 0.4 mm 3 mps 585 mmHg 64%
    14:00 +21°C° 0.3 mm 3 mps 585 mmHg 67%
    15:00 +20°C° 0.3 mm 3 mps 584 mmHg 70%
    16:00 +19°C° 0.3 mm 2 mps 583 mmHg 73%
    17:00 +17°C° 0.2 mm 2 mps 583 mmHg 81%
    18:00 +16°C° 0.2 mm 1 mps 582 mmHg 89%
    19:00 +13°C° 0.2 mm 0 mps 581 mmHg 97%
    20:00 +12°C° 0 mm 0 mps 582 mmHg 97%
    21:00 +13°C° 0 mm 1 mps 582 mmHg 97%
    22:00 +13°C° 0 mm 1 mps 582 mmHg 96%
    23:00 +12°C° 0 mm 1 mps 582 mmHg 96%

    28 September, Saturday

    Time Temperature Precipitation Wind Pressure Humidity
    00:00 +12°C° 0 mm 1 mps 582 mmHg 95%
    01:00 +12°C° 0 mm 1 mps 581 mmHg 94%
    02:00 +12°C° 0 mm 1 mps 581 mmHg 94%
    03:00 +12°C° 0 mm 1 mps 581 mmHg 94%
    04:00 +12°C° 0 mm 1 mps 581 mmHg 93%
    05:00 +13°C° 0 mm 1 mps 582 mmHg 91%
    06:00 +14°C° 0 mm 1 mps 582 mmHg 88%
    07:00 +14°C° 0 mm 0 mps 583 mmHg 85%
    08:00 +18°C° 0 mm 1 mps 585 mmHg 74%
    09:00 +21°C° 0 mm 1 mps 586 mmHg 63%
    10:00 +24°C° 0 mm 2 mps 587 mmHg 51%
    11:00 +24°C° 0.2 mm 2 mps 587 mmHg 52%
    12:00 +24°C° 0.2 mm 2 mps 586 mmHg 53%
    13:00 +24°C° 0.2 mm 2 mps 585 mmHg 54%
    14:00 +23°C° 0.8 mm 2 mps 584 mmHg 64%
    15:00 +20°C° 0.8 mm 2 mps 583 mmHg 74%
    16:00 +19°C° 0.8 mm 2 mps 582 mmHg 84%
    17:00 +19°C° 0.5 mm 1 mps 582 mmHg 89%
    18:00 +16°C° 0.5 mm 1 mps 582 mmHg 93%
    19:00 +14°C° 0.5 mm 0 mps 581 mmHg 98%
    20:00 +14°C° 0.1 mm 0 mps 582 mmHg 97%
    21:00 +13°C° 0.1 mm 0 mps 582 mmHg 97%
    22:00 +13°C° 0.1 mm 0 mps 582 mmHg 96%
    23:00 +13°C° 0 mm 1 mps 582 mmHg 96%
    Show more